Voltar ao catálogo

COSMOS 2466

GLONASS

AtivoNavegaçãoMEO
NORAD 37137·PAYLOAD·🇷🇺 Russia

Lançado Sep 2, 2010 de Baikonur Cosmodrome

Loading…

Próximas Passagens (próximas 24 horas)

TLE

AtualizadoSource: Space-Track

Época: Sep 14, 2026, 11:00 UTC

1 37137U 10041A   26257.45855010  .00000018  00000-0  00000-0 0  9996
2 37137  63.8947 187.0224 0016943 177.0537   6.6646  2.13111862124748

Acompanhe COSMOS 2466 em tempo real com AllMySat

Download on the App Store